Location: Artiguedieu
(43.5000°N, 0.5454°E)
Time: 09:00:41
(UTC+00:00)

Vanguard 1 Rocket - Pass Details

Date: 04 August 2021
Orbit: 650 x 4226 km, 34.3° (Epoch: 24 September)

Event Time Altitude Azimuth Distance (km) Brightness Sun altitude
Rises 10:25:05 0° 249° (WSW) 8,191 12.1 56.3°
Reaches altitude 10° 10:31:23 10° 246° (WSW) 6,825 11.8 57.1°
Maximum altitude 10:50:52 56° 176° (S) 2,758 11.7 59.4°
Drops below altitude 10° 11:01:03 10° 101° (ESE) 3,784 11.0 60.4°
Sets 11:03:29 0° 97° (E) 4,447 11.2 60.7°
